Location: Solon
(41.3849°N, 81.4081°W)
Time: 04:03:47
(UTC-04:00)

CZ-2C R/B - Visible Passes

Search period start: 26 April 2017 00:00
Search period end: 06 May 2017 00:00
Orbit: 704 x 908 km, 98.2° (Epoch: 24 April)

Date Brightness Start Highest point End Pass type
(mag) Time Alt. Az. Time Alt. Az. Time Alt. Az.
26 Apr 5.0 01:36:16 22° NW 01:36:16 22° NW 01:38:07 10° NNW visible
26 Apr 5.3 23:30:01 12° NE 23:30:01 12° NE 23:31:24 10° NE visible
27 Apr 4.6 01:11:04 30° NNW 01:11:04 30° NNW 01:13:30 10° NNW visible
28 Apr 4.4 00:45:52 33° N 00:45:52 33° N 00:48:40 10° N visible
29 Apr 4.5 00:20:41 28° NNE 00:20:41 28° NNE 00:23:37 10° N visible
29 Apr 5.2 02:01:44 16° NW 02:01:44 16° NW 02:03:06 10° NW visible
29 Apr 4.8 23:55:29 20° NE 23:55:29 20° NE 23:58:16 10° NNE visible
30 Apr 4.7 01:36:33 25° NW 01:36:33 25° NW 01:38:50 10° NNW visible
30 Apr 5.2 23:30:18 13° ENE 23:30:18 13° ENE 23:32:20 10° NNE visible
01 May 4.3 01:11:21 35° NNW 01:11:21 35° NNW 01:14:15 10° NNW visible
02 May 4.1 00:46:10 39° N 00:46:10 39° N 00:49:26 10° N visible
02 May 5.5 02:27:13 10° WNW 02:27:13 10° WNW 02:27:20 10° WNW visible
03 May 4.3 00:20:58 32° NE 00:20:58 32° NE 00:24:24 10° N visible
03 May 5.1 02:02:02 18° WNW 02:02:02 18° WNW 02:03:49 10° NW visible
03 May 4.7 23:55:47 22° NE 23:55:47 22° NE 23:59:05 10° NNE visible
04 May 4.5 01:36:50 28° NW 01:36:50 28° NW 01:39:34 10° NNW visible
04 May 5.1 23:30:35 14° ENE 23:30:46 14° ENE 23:33:16 10° NNE visible
05 May 4.0 01:11:39 41° NNW 01:11:39 41° NNW 01:15:00 10° NNW visible
